Time,TemperatureF,DewpointF,PressureIn,WindDirection,WindDirectionDegrees,WindSpeedMPH,WindSpeedGustMPH,Humidity,HourlyPrecipIn,Conditions,Clouds,dailyrainin,SoftwareType,DateUTC
2013-01-10 00:00:00,28.7,23.0,30.36,SSW,193,2.0,0.0,79,0.00,,OVC003,0.00,VWS V14.01,2013-01-10 05:00:00,
2013-01-10 00:03:00,28.6,22.9,30.35,SSW,193,2.0,0.0,79,0.00,,OVC003,0.00,VWS V14.01,2013-01-10 05:03:00,
2013-01-10 00:07:00,28.5,23.1,30.35,SSW,193,2.0,0.0,80,0.00,,OVC003,0.00,VWS V14.01,2013-01-10 05:07:00,
2013-01-10 00:12:00,28.5,23.1,30.35,SSW,193,2.0,0.0,80,0.00,,OVC003,0.00,VWS V14.01,2013-01-10 05:12:00,
2013-01-10 00:17:00,28.4,23.0,30.35,SSW,193,2.0,0.0,80,0.00,,OVC003,0.00,VWS V14.01,2013-01-10 05:17:00,
2013-01-10 00:23:00,28.3,23.2,30.35,SSW,193,2.0,0.0,81,0.00,,OVC003,0.00,VWS V14.01,2013-01-10 05:23:00,
2013-01-10 00:28:00,28.2,23.1,30.35,SSW,193,2.0,0.0,81,0.00,,OVC003,0.00,VWS V14.01,2013-01-10 05:28:00,
2013-01-10 00:33:00,28.1,23.0,30.36,SSW,193,2.0,0.0,81,0.00,,OVC003,0.00,VWS V14.01,2013-01-10 05:33:00,
2013-01-10 00:38:00,28.0,22.9,30.36,SSW,193,2.0,0.0,81,0.00,,OVC003,0.00,VWS V14.01,2013-01-10 05:38:00,
2013-01-10 00:43:00,27.9,22.8,30.36,SSW,193,2.0,0.0,81,0.00,,OVC003,0.00,VWS V14.01,2013-01-10 05:43:00,
2013-01-10 00:48:00,27.8,23.0,30.36,SSW,193,2.0,0.0,82,0.00,,OVC003,0.00,VWS V14.01,2013-01-10 05:48:00,
2013-01-10 00:53:00,27.8,23.0,30.36,SSW,193,2.0,0.0,82,0.00,,OVC003,0.00,VWS V14.01,2013-01-10 05:53:00,
2013-01-10 00:58:00,27.7,22.9,30.36,SSW,193,2.0,0.0,82,0.00,,OVC003,0.00,VWS V14.01,2013-01-10 05:58:00,
2013-01-10 01:03:00,27.6,22.8,30.36,SSW,193,2.0,0.0,82,0.00,,OVC003,0.00,VWS V14.01,2013-01-10 06:03:00,
2013-01-10 01:08:00,27.4,22.6,30.36,SSW,193,2.0,0.0,82,0.00,,OVC003,0.00,VWS V14.01,2013-01-10 06:08:00,
2013-01-10 01:13:00,27.3,22.5,30.36,SSW,193,2.0,0.0,82,0.00,,OVC003,0.00,VWS V14.01,2013-01-10 06:13:00,
2013-01-10 01:18:00,27.2,22.4,30.37,SSW,193,2.0,0.0,82,0.00,,OVC003,0.00,VWS V14.01,2013-01-10 06:18:00,
2013-01-10 01:23:00,27.1,22.6,30.37,SSW,193,2.0,0.0,83,0.00,,OVC003,0.00,VWS V14.01,2013-01-10 06:23:00,
2013-01-10 01:28:00,26.9,22.4,30.37,SSW,193,2.0,0.0,83,0.00,,OVC003,0.00,VWS V14.01,2013-01-10 06:28:00,
2013-01-10 01:33:00,26.7,22.2,30.38,SSW,193,2.0,0.0,83,0.00,,OVC003,0.00,VWS V14.01,2013-01-10 06:33:00,
2013-01-10 01:38:00,26.6,22.1,30.38,SSW,193,3.0,3.0,83,0.00,,OVC003,0.00,VWS V14.01,2013-01-10 06:38:00,
2013-01-10 01:43:00,26.5,22.0,30.38,SSW,193,2.0,0.0,83,0.00,,OVC003,0.00,VWS V14.01,2013-01-10 06:43:00,
2013-01-10 01:48:00,26.4,22.2,30.40,SSW,193,2.0,0.0,84,0.00,,OVC003,0.00,VWS V14.01,2013-01-10 06:48:00,
2013-01-10 01:53:00,26.4,22.2,30.40,SSW,193,2.0,0.0,84,0.00,,OVC003,0.00,VWS V14.01,2013-01-10 06:53:00,
2013-01-10 01:58:00,26.5,22.3,30.40,SSW,193,2.0,0.0,84,0.00,,OVC003,0.00,VWS V14.01,2013-01-10 06:58:00,
2013-01-10 02:03:00,26.4,22.2,30.42,SSW,193,2.0,0.0,84,0.00,,OVC003,0.00,VWS V14.01,2013-01-10 07:03:00,
2013-01-10 02:08:00,26.3,22.1,30.42,SSW,193,2.0,0.0,84,0.00,,OVC003,0.00,VWS V14.01,2013-01-10 07:08:00,
2013-01-10 02:13:00,26.4,22.5,30.42,SSW,193,2.0,0.0,85,0.00,,OVC003,0.00,VWS V14.01,2013-01-10 07:13:00,
2013-01-10 02:19:00,26.7,22.8,30.43,SSW,193,2.0,0.0,85,0.00,,OVC003,0.00,VWS V14.01,2013-01-10 07:19:00,
2013-01-10 02:24:00,26.8,22.9,30.43,SSW,193,2.0,0.0,85,0.00,,OVC003,0.00,VWS V14.01,2013-01-10 07:24:00,
2013-01-10 02:29:00,26.7,22.8,30.43,SSW,193,2.0,0.0,85,0.00,,OVC003,0.00,VWS V14.01,2013-01-10 07:29:00,
2013-01-10 02:34:00,26.7,22.8,30.44,SSW,193,2.0,0.0,85,0.00,,OVC003,0.00,VWS V14.01,2013-01-10 07:34:00,
2013-01-10 02:39:00,26.6,22.7,30.44,SSW,193,2.0,0.0,85,0.00,,OVC003,0.00,VWS V14.01,2013-01-10 07:39:00,
2013-01-10 02:44:00,26.6,22.7,30.44,SSW,193,2.0,0.0,85,0.00,,OVC003,0.00,VWS V14.01,2013-01-10 07:44:00,
2013-01-10 02:49:00,26.4,22.5,30.45,SSW,193,2.0,0.0,85,0.00,,OVC003,0.00,VWS V14.01,2013-01-10 07:49:00,
2013-01-10 02:54:00,26.3,22.4,30.45,SSW,193,2.0,0.0,85,0.00,,OVC003,0.00,VWS V14.01,2013-01-10 07:54:00,
2013-01-10 02:59:00,26.2,22.3,30.45,SSW,193,3.0,3.0,85,0.00,,OVC003,0.00,VWS V14.01,2013-01-10 07:59:00,
2013-01-10 03:04:00,26.2,22.3,30.47,SSW,193,2.0,0.0,85,0.00,,OVC003,0.00,VWS V14.01,2013-01-10 08:04:00,
2013-01-10 03:09:00,26.3,22.7,30.47,SSW,193,2.0,0.0,86,0.00,,OVC003,0.00,VWS V14.01,2013-01-10 08:09:00,
2013-01-10 03:14:00,26.4,22.5,30.47,SSW,193,2.0,0.0,85,0.00,,OVC003,0.00,VWS V14.01,2013-01-10 08:14:00,
2013-01-10 03:19:00,26.5,22.6,30.48,SSW,193,2.0,0.0,85,0.00,,OVC003,0.00,VWS V14.01,2013-01-10 08:19:00,
2013-01-10 03:24:00,26.4,22.5,30.48,SSW,193,2.0,2.0,85,0.00,,OVC003,0.00,VWS V14.01,2013-01-10 08:24:00,
2013-01-10 03:29:00,26.6,23.0,30.48,SSW,193,2.0,0.0,86,0.00,,OVC003,0.00,VWS V14.01,2013-01-10 08:29:00,
2013-01-10 03:34:00,26.9,23.3,30.48,SSW,193,2.0,0.0,86,0.00,,OVC003,0.00,VWS V14.01,2013-01-10 08:34:00,
2013-01-10 03:39:00,27.1,23.5,30.48,SSW,193,2.0,0.0,86,0.00,,OVC003,0.00,VWS V14.01,2013-01-10 08:39:00,
2013-01-10 03:44:00,27.1,23.2,30.48,SSW,193,2.0,0.0,85,0.00,,OVC003,0.00,VWS V14.01,2013-01-10 08:44:00,
2013-01-10 03:49:00,26.9,23.0,30.47,SSW,193,2.0,0.0,85,0.00,,OVC003,0.00,VWS V14.01,2013-01-10 08:49:00,
2013-01-10 03:54:00,26.7,22.8,30.47,SSW,193,2.0,0.0,85,0.00,,OVC003,0.00,VWS V14.01,2013-01-10 08:54:00,
2013-01-10 03:59:00,26.7,22.8,30.47,SSW,193,2.0,0.0,85,0.00,,OVC003,0.00,VWS V14.01,2013-01-10 08:59:00,
2013-01-10 04:04:00,26.7,23.1,30.47,SSW,193,2.0,0.0,86,0.00,,OVC003,0.00,VWS V14.01,2013-01-10 09:04:00,
2013-01-10 04:09:00,26.7,23.1,30.47,SSW,193,2.0,0.0,86,0.00,,OVC003,0.00,VWS V14.01,2013-01-10 09:09:00,
2013-01-10 04:14:00,26.8,23.2,30.47,SSW,193,2.0,0.0,86,0.00,,OVC003,0.00,VWS V14.01,2013-01-10 09:14:00,
2013-01-10 04:19:00,26.9,23.3,30.47,SSW,193,2.0,0.0,86,0.00,,OVC003,0.00,VWS V14.01,2013-01-10 09:19:00,
2013-01-10 04:24:00,27.0,23.4,30.47,SSW,193,2.0,0.0,86,0.00,,OVC003,0.00,VWS V14.01,2013-01-10 09:24:00,
2013-01-10 04:29:00,27.0,23.4,30.47,SSW,193,2.0,0.0,86,0.00,,OVC003,0.00,VWS V14.01,2013-01-10 09:29:00,
2013-01-10 04:34:00,27.1,23.5,30.47,SSW,193,2.0,0.0,86,0.00,,OVC003,0.00,VWS V14.01,2013-01-10 09:34:00,
2013-01-10 04:39:00,27.0,23.1,30.47,SSW,193,2.0,0.0,85,0.00,,OVC003,0.00,VWS V14.01,2013-01-10 09:39:00,
2013-01-10 04:44:00,26.9,23.0,30.47,SSW,193,2.0,0.0,85,0.00,,OVC003,0.00,VWS V14.01,2013-01-10 09:44:00,
2013-01-10 04:49:00,26.7,22.8,30.46,SSW,193,2.0,0.0,85,0.00,,OVC003,0.00,VWS V14.01,2013-01-10 09:49:00,
2013-01-10 04:54:00,26.5,22.6,30.46,SSW,193,2.0,0.0,85,0.00,,OVC003,0.00,VWS V14.01,2013-01-10 09:54:00,
2013-01-10 04:59:00,26.3,22.4,30.46,SSW,193,2.0,0.0,85,0.00,,OVC003,0.00,VWS V14.01,2013-01-10 09:59:00,
2013-01-10 05:04:00,26.2,22.6,30.46,SSW,193,2.0,0.0,86,0.00,,OVC003,0.00,VWS V14.01,2013-01-10 10:04:00,
2013-01-10 05:09:00,26.2,22.6,30.46,SSW,193,2.0,0.0,86,0.00,,OVC003,0.00,VWS V14.01,2013-01-10 10:09:00,
2013-01-10 05:14:00,26.1,22.5,30.46,SSW,193,2.0,0.0,86,0.00,,OVC003,0.00,VWS V14.01,2013-01-10 10:14:00,
2013-01-10 05:20:00,26.1,22.5,30.46,SSW,193,2.0,0.0,86,0.00,,OVC003,0.00,VWS V14.01,2013-01-10 10:20:00,
2013-01-10 05:25:00,26.1,22.5,30.46,SSW,193,2.0,0.0,86,0.00,,OVC003,0.00,VWS V14.01,2013-01-10 10:25:00,
2013-01-10 05:30:00,26.1,22.5,30.46,SSW,193,2.0,0.0,86,0.00,,OVC003,0.00,VWS V14.01,2013-01-10 10:30:00,
2013-01-10 05:35:00,26.0,22.4,30.46,SSW,193,2.0,0.0,86,0.00,,OVC003,0.00,VWS V14.01,2013-01-10 10:35:00,
2013-01-10 05:40:00,26.0,22.4,30.46,SSW,193,2.0,0.0,86,0.00,,OVC003,0.00,VWS V14.01,2013-01-10 10:40:00,
2013-01-10 05:45:00,25.8,22.2,30.46,SSW,193,2.0,0.0,86,0.00,,OVC003,0.00,VWS V14.01,2013-01-10 10:45:00,
2013-01-10 05:50:00,25.7,22.4,30.46,SSW,193,2.0,0.0,87,0.00,,OVC003,0.00,VWS V14.01,2013-01-10 10:50:00,
2013-01-10 05:55:00,25.6,22.3,30.46,SSW,193,2.0,0.0,87,0.00,,OVC003,0.00,VWS V14.01,2013-01-10 10:55:00,
2013-01-10 06:00:00,25.4,22.1,30.46,SSW,193,2.0,0.0,87,0.00,,OVC003,0.00,VWS V14.01,2013-01-10 11:00:00,
2013-01-10 06:05:00,25.2,21.9,30.47,SSW,193,2.0,0.0,87,0.00,,OVC003,0.00,VWS V14.01,2013-01-10 11:05:00,
2013-01-10 06:10:00,25.1,21.8,30.47,SSW,193,2.0,0.0,87,0.00,,OVC003,0.00,VWS V14.01,2013-01-10 11:10:00,
2013-01-10 06:15:00,24.9,21.6,30.47,SSW,193,2.0,0.0,87,0.00,,OVC003,0.00,VWS V14.01,2013-01-10 11:15:00,
2013-01-10 06:20:00,24.8,21.5,30.48,SSW,193,2.0,0.0,87,0.00,,OVC003,0.00,VWS V14.01,2013-01-10 11:20:00,
2013-01-10 06:25:00,24.6,21.3,30.48,SSW,193,2.0,0.0,87,0.00,,OVC003,0.00,VWS V14.01,2013-01-10 11:25:00,
2013-01-10 06:30:00,24.4,21.1,30.48,SSW,193,2.0,0.0,87,0.00,,OVC003,0.00,VWS V14.01,2013-01-10 11:30:00,
2013-01-10 06:35:00,24.4,21.1,30.48,SSW,193,2.0,0.0,87,0.00,,OVC003,0.00,VWS V14.01,2013-01-10 11:35:00,
2013-01-10 06:40:00,24.3,21.0,30.48,SSW,193,2.0,0.0,87,0.00,,OVC003,0.00,VWS V14.01,2013-01-10 11:40:00,
2013-01-10 06:45:00,24.3,21.3,30.48,SSW,193,2.0,0.0,88,0.00,,OVC003,0.00,VWS V14.01,2013-01-10 11:45:00,
2013-01-10 06:50:00,24.3,21.3,30.49,SSW,193,2.0,0.0,88,0.00,,OVC003,0.00,VWS V14.01,2013-01-10 11:50:00,
2013-01-10 06:55:00,24.3,21.3,30.49,SSW,193,2.0,0.0,88,0.00,,OVC003,0.00,VWS V14.01,2013-01-10 11:55:00,
2013-01-10 07:00:00,24.2,21.2,30.49,SSW,193,2.0,0.0,88,0.00,,OVC003,0.00,VWS V14.01,2013-01-10 12:00:00,
2013-01-10 07:05:00,24.2,21.2,30.50,SSW,193,2.0,0.0,88,0.00,,OVC003,0.00,VWS V14.01,2013-01-10 12:05:00,
2013-01-10 07:10:00,24.2,21.2,30.50,SSW,193,2.0,0.0,88,0.00,,OVC003,0.00,VWS V14.01,2013-01-10 12:10:00,
2013-01-10 07:15:00,24.1,21.1,30.50,SSW,193,2.0,0.0,88,0.00,,OVC003,0.00,VWS V14.01,2013-01-10 12:15:00,
2013-01-10 07:20:00,24.0,21.0,30.50,SSW,193,2.0,0.0,88,0.00,,OVC003,0.00,VWS V14.01,2013-01-10 12:20:00,
2013-01-10 07:25:00,24.0,21.0,30.50,SSW,193,2.0,0.0,88,0.00,,OVC003,0.00,VWS V14.01,2013-01-10 12:25:00,
2013-01-10 07:30:00,23.9,20.9,30.50,SSW,193,2.0,0.0,88,0.00,,OVC003,0.00,VWS V14.01,2013-01-10 12:30:00,
2013-01-10 07:35:00,23.8,20.8,30.50,SSW,193,2.0,0.0,88,0.00,,OVC003,0.00,VWS V14.01,2013-01-10 12:35:00,
2013-01-10 07:40:00,23.7,20.7,30.50,SSW,193,2.0,0.0,88,0.00,,OVC003,0.00,VWS V14.01,2013-01-10 12:40:00,
2013-01-10 07:45:00,23.5,20.5,30.50,SSW,193,2.0,0.0,88,0.00,,OVC003,0.00,VWS V14.01,2013-01-10 12:45:00,
2013-01-10 07:50:00,23.5,20.5,30.51,SSW,193,2.0,0.0,88,0.00,,OVC003,0.00,VWS V14.01,2013-01-10 12:50:00,
2013-01-10 07:56:00,23.4,20.4,30.51,SSW,193,2.0,0.0,88,0.00,,OVC003,0.00,VWS V14.01,2013-01-10 12:56:00,
2013-01-10 08:01:00,23.3,20.3,30.51,SSW,193,2.0,0.0,88,0.00,,OVC003,0.00,VWS V14.01,2013-01-10 13:01:00,
2013-01-10 08:06:00,23.2,20.5,30.51,SSW,193,2.0,0.0,89,0.00,,OVC003,0.00,VWS V14.01,2013-01-10 13:06:00,
2013-01-10 08:11:00,23.1,20.1,30.51,SSW,193,2.0,0.0,88,0.00,,OVC003,0.00,VWS V14.01,2013-01-10 13:11:00,
2013-01-10 08:16:00,23.0,20.0,30.51,SSW,193,2.0,0.0,88,0.00,,OVC003,0.00,VWS V14.01,2013-01-10 13:16:00,
2013-01-10 08:21:00,22.9,20.1,30.51,SSW,193,2.0,0.0,89,0.00,,OVC003,0.00,VWS V14.01,2013-01-10 13:21:00,
2013-01-10 08:26:00,22.9,20.1,30.51,SSW,193,2.0,0.0,89,0.00,,OVC003,0.00,VWS V14.01,2013-01-10 13:26:00,
2013-01-10 08:31:00,22.9,20.1,30.51,SSW,193,2.0,0.0,89,0.00,,OVC003,0.00,VWS V14.01,2013-01-10 13:31:00,
2013-01-10 08:36:00,22.8,20.0,30.51,SSW,193,2.0,0.0,89,0.00,,OVC003,0.00,VWS V14.01,2013-01-10 13:36:00,
2013-01-10 08:41:00,22.9,20.1,30.51,SSW,193,2.0,0.0,89,0.00,,OVC003,0.00,VWS V14.01,2013-01-10 13:41:00,
2013-01-10 08:46:00,22.9,20.1,30.51,SSW,193,2.0,0.0,89,0.00,,OVC003,0.00,VWS V14.01,2013-01-10 13:46:00,
2013-01-10 08:51:00,22.9,20.1,30.51,SSW,193,2.0,0.0,89,0.00,,OVC003,0.00,VWS V14.01,2013-01-10 13:51:00,
2013-01-10 08:56:00,22.9,20.1,30.51,SSW,193,2.0,0.0,89,0.00,,OVC003,0.00,VWS V14.01,2013-01-10 13:56:00,
2013-01-10 09:01:00,22.9,20.1,30.51,SSW,193,2.0,0.0,89,0.00,,OVC003,0.00,VWS V14.01,2013-01-10 14:01:00,
2013-01-10 09:06:00,22.9,20.1,30.51,SSW,193,2.0,0.0,89,0.00,,OVC003,0.00,VWS V14.01,2013-01-10 14:06:00,
2013-01-10 09:11:00,22.9,20.1,30.51,SSW,193,2.0,0.0,89,0.00,,OVC003,0.00,VWS V14.01,2013-01-10 14:11:00,
2013-01-10 09:16:00,22.9,20.1,30.51,SSW,193,2.0,0.0,89,0.00,,OVC003,0.00,VWS V14.01,2013-01-10 14:16:00,
2013-01-10 09:21:00,23.0,20.2,30.51,SSW,193,2.0,0.0,89,0.00,,OVC003,0.00,VWS V14.01,2013-01-10 14:21:00,
2013-01-10 09:26:00,23.2,20.5,30.51,SSW,193,2.0,0.0,89,0.00,,OVC003,0.00,VWS V14.01,2013-01-10 14:26:00,
2013-01-10 09:31:00,23.3,20.8,30.51,SSW,193,2.0,0.0,90,0.00,,OVC003,0.00,VWS V14.01,2013-01-10 14:31:00,
2013-01-10 09:36:00,23.5,21.0,30.51,SSW,193,2.0,0.0,90,0.00,,OVC003,0.00,VWS V14.01,2013-01-10 14:36:00,
2013-01-10 09:41:00,23.8,21.3,30.51,SSW,193,2.0,0.0,90,0.00,,OVC003,0.00,VWS V14.01,2013-01-10 14:41:00,
2013-01-10 09:46:00,24.0,21.5,30.51,SSW,193,2.0,0.0,90,0.00,,OVC003,0.00,VWS V14.01,2013-01-10 14:46:00,
2013-01-10 09:51:00,24.4,21.9,30.50,SSW,193,2.0,0.0,90,0.00,,OVC003,0.00,VWS V14.01,2013-01-10 14:51:00,
2013-01-10 09:56:00,25.1,22.6,30.50,SSW,193,2.0,0.0,90,0.00,,OVC003,0.00,VWS V14.01,2013-01-10 14:56:00,
2013-01-10 10:01:00,26.1,23.8,30.50,SSW,193,2.0,0.0,91,0.00,,OVC003,0.00,VWS V14.01,2013-01-10 15:01:00,
2013-01-10 10:06:00,27.4,25.1,30.50,SSW,193,2.0,2.0,91,0.00,,OVC003,0.00,VWS V14.01,2013-01-10 15:06:00,
2013-01-10 10:11:00,28.5,26.2,30.50,SSW,193,2.0,0.0,91,0.00,,OVC003,0.00,VWS V14.01,2013-01-10 15:11:00,
2013-01-10 10:16:00,29.2,26.6,30.50,SSW,193,2.0,0.0,90,0.00,,OVC003,0.00,VWS V14.01,2013-01-10 15:16:00,
2013-01-10 10:21:00,29.8,27.0,30.51,SSW,193,2.0,2.0,89,0.00,,OVC003,0.00,VWS V14.01,2013-01-10 15:21:00,
2013-01-10 10:26:00,30.6,27.5,30.51,SSW,193,2.0,2.0,88,0.00,,OVC003,0.00,VWS V14.01,2013-01-10 15:26:00,
2013-01-10 10:31:00,31.5,28.1,30.51,SSW,193,2.0,0.0,87,0.00,,OVC003,0.00,VWS V14.01,2013-01-10 15:31:00,
2013-01-10 10:36:00,32.0,28.3,30.50,SSW,193,3.0,3.0,86,0.00,,OVC003,0.00,VWS V14.01,2013-01-10 15:36:00,
2013-01-10 10:41:00,32.4,28.1,30.50,SSW,193,3.0,3.0,84,0.00,,OVC003,0.00,VWS V14.01,2013-01-10 15:41:00,
2013-01-10 10:46:00,32.7,28.1,30.50,SSW,193,2.0,2.0,83,0.00,,OVC003,0.00,VWS V14.01,2013-01-10 15:46:00,
2013-01-10 10:51:00,32.9,28.3,30.51,SSW,193,2.0,2.0,83,0.00,,OVC003,0.00,VWS V14.01,2013-01-10 15:51:00,
2013-01-10 10:56:00,33.3,28.4,30.51,SSW,193,2.0,2.0,82,0.00,,OVC003,0.00,VWS V14.01,2013-01-10 15:56:00,
2013-01-10 11:01:00,33.6,28.4,30.51,SSW,193,2.0,2.0,81,0.00,,OVC003,0.00,VWS V14.01,2013-01-10 16:01:00,
2013-01-10 11:06:00,34.1,28.9,30.50,SSW,193,4.0,4.0,81,0.00,,OVC003,0.00,VWS V14.01,2013-01-10 16:06:00,
2013-01-10 11:11:00,34.4,28.9,30.50,SSW,193,2.0,2.0,80,0.00,,OVC003,0.00,VWS V14.01,2013-01-10 16:11:00,
2013-01-10 11:17:00,34.9,29.1,30.49,SW,214,3.0,4.0,79,0.00,,OVC003,0.00,VWS V14.01,2013-01-10 16:17:00,
2013-01-10 11:22:00,35.4,29.2,30.49,SW,215,3.0,3.0,78,0.00,,OVC003,0.00,VWS V14.01,2013-01-10 16:22:00,
2013-01-10 11:27:00,36.0,29.5,30.49,SSW,197,2.0,2.0,77,0.00,,OVC003,0.00,VWS V14.01,2013-01-10 16:27:00,
2013-01-10 11:32:00,36.7,29.9,30.48,SSE,148,3.0,4.0,76,0.00,,OVC003,0.00,VWS V14.01,2013-01-10 16:32:00,
2013-01-10 11:37:00,37.1,29.6,30.48,SSW,205,2.0,3.0,74,0.00,,OVC003,0.00,VWS V14.01,2013-01-10 16:37:00,
2013-01-10 11:42:00,37.3,29.8,30.48,SSW,205,2.0,2.0,74,0.00,,OVC003,0.00,VWS V14.01,2013-01-10 16:42:00,
2013-01-10 11:47:00,37.8,29.9,30.48,SSW,205,3.0,3.0,73,0.00,,OVC003,0.00,VWS V14.01,2013-01-10 16:47:00,
2013-01-10 11:52:00,38.2,29.6,30.48,SSW,205,3.0,3.0,71,0.00,,OVC003,0.00,VWS V14.01,2013-01-10 16:52:00,
2013-01-10 11:57:00,38.6,29.7,30.48,SW,225,2.0,3.0,70,0.00,,OVC003,0.00,VWS V14.01,2013-01-10 16:57:00,
2013-01-10 12:02:00,38.9,29.6,30.46,SSW,201,2.0,3.0,69,0.00,,OVC003,0.00,VWS V14.01,2013-01-10 17:02:00,
2013-01-10 12:07:00,39.2,29.5,30.46,SSE,147,2.0,4.0,68,0.00,,OVC003,0.00,VWS V14.01,2013-01-10 17:07:00,
2013-01-10 12:12:00,39.4,29.4,30.46,South,169,2.0,4.0,67,0.00,,OVC003,0.00,VWS V14.01,2013-01-10 17:12:00,
2013-01-10 12:17:00,39.4,29.4,30.46,West,265,3.0,3.0,67,0.00,,OVC003,0.00,VWS V14.01,2013-01-10 17:17:00,
2013-01-10 12:22:00,39.6,29.6,30.46,SE,141,5.0,5.0,67,0.00,,OVC003,0.00,VWS V14.01,2013-01-10 17:22:00,
2013-01-10 12:27:00,39.8,29.0,30.46,SSE,153,3.0,3.0,65,0.00,,OVC003,0.00,VWS V14.01,2013-01-10 17:27:00,
2013-01-10 12:32:00,39.9,29.5,30.44,West,271,2.0,4.0,66,0.00,,OVC003,0.00,VWS V14.01,2013-01-10 17:32:00,
2013-01-10 12:37:00,40.3,29.5,30.44,West,271,2.0,2.0,65,0.00,,OVC003,0.00,VWS V14.01,2013-01-10 17:37:00,
2013-01-10 12:42:00,40.7,29.5,30.44,SSE,151,4.0,4.0,64,0.00,,OVC003,0.00,VWS V14.01,2013-01-10 17:42:00,
2013-01-10 12:47:00,41.1,29.1,30.43,SSE,159,2.0,3.0,62,0.00,,OVC003,0.00,VWS V14.01,2013-01-10 17:47:00,
2013-01-10 12:52:00,41.2,28.8,30.43,SE,129,2.0,5.0,61,0.00,,OVC003,0.00,VWS V14.01,2013-01-10 17:52:00,
2013-01-10 12:57:00,41.3,28.9,30.43,SE,130,2.0,3.0,61,0.00,,OVC003,0.00,VWS V14.01,2013-01-10 17:57:00,
2013-01-10 13:02:00,41.5,29.1,30.42,SSW,211,2.0,4.0,61,0.00,,OVC003,0.00,VWS V14.01,2013-01-10 18:02:00,
2013-01-10 13:07:00,41.8,29.0,30.42,SSE,161,2.0,2.0,60,0.00,,OVC003,0.00,VWS V14.01,2013-01-10 18:07:00,
2013-01-10 13:12:00,42.1,29.2,30.42,ESE,116,3.0,3.0,60,0.00,,OVC003,0.00,VWS V14.01,2013-01-10 18:12:00,
2013-01-10 13:17:00,42.4,29.1,30.42,SE,134,3.0,4.0,59,0.00,,OVC003,0.00,VWS V14.01,2013-01-10 18:17:00,
2013-01-10 13:22:00,42.4,28.7,30.42,SSW,195,5.0,5.0,58,0.00,,OVC003,0.00,VWS V14.01,2013-01-10 18:22:00,
2013-01-10 13:27:00,42.3,28.6,30.42,SE,139,2.0,3.0,58,0.00,,OVC003,0.00,VWS V14.01,2013-01-10 18:27:00,
2013-01-10 13:32:00,42.6,29.3,30.41,SE,139,2.0,2.0,59,0.00,,OVC003,0.00,VWS V14.01,2013-01-10 18:32:00,
2013-01-10 13:37:00,42.8,29.1,30.41,SSE,149,3.0,3.0,58,0.00,,OVC003,0.00,VWS V14.01,2013-01-10 18:37:00,
2013-01-10 13:42:00,42.8,29.1,30.41,SSE,149,2.0,2.0,58,0.00,,OVC003,0.00,VWS V14.01,2013-01-10 18:42:00,
2013-01-10 13:47:00,43.1,29.8,30.40,SSE,149,2.0,2.0,59,0.00,,OVC003,0.00,VWS V14.01,2013-01-10 18:47:00,
2013-01-10 13:52:00,43.2,29.4,30.40,ESE,107,3.0,3.0,58,0.00,,OVC003,0.00,VWS V14.01,2013-01-10 18:52:00,
2013-01-10 13:57:00,43.1,29.3,30.40,ESE,108,2.0,2.0,58,0.00,,OVC003,0.00,VWS V14.01,2013-01-10 18:57:00,
2013-01-10 14:02:00,42.9,29.2,30.39,SSE,162,2.0,2.0,58,0.00,,OVC003,0.00,VWS V14.01,2013-01-10 19:02:00,
2013-01-10 14:07:00,42.6,28.9,30.39,SW,217,2.0,3.0,58,0.00,,OVC003,0.00,VWS V14.01,2013-01-10 19:07:00,
2013-01-10 14:12:00,42.8,29.5,30.39,ESE,105,4.0,4.0,59,0.00,,OVC003,0.00,VWS V14.01,2013-01-10 19:12:00,
2013-01-10 14:17:00,42.7,29.4,30.38,ESE,105,3.0,3.0,59,0.00,,OVC003,0.00,VWS V14.01,2013-01-10 19:17:00,
2013-01-10 14:22:00,42.7,29.4,30.38,SW,230,2.0,3.0,59,0.00,,OVC003,0.00,VWS V14.01,2013-01-10 19:22:00,
2013-01-10 14:27:00,42.7,29.4,30.38,South,188,2.0,2.0,59,0.00,,OVC003,0.00,VWS V14.01,2013-01-10 19:27:00,
2013-01-10 14:32:00,42.9,29.6,30.38,South,187,2.0,2.0,59,0.00,,OVC003,0.00,VWS V14.01,2013-01-10 19:32:00,
2013-01-10 14:37:00,43.0,29.7,30.38,South,187,3.0,3.0,59,0.00,,OVC003,0.00,VWS V14.01,2013-01-10 19:37:00,
2013-01-10 14:42:00,43.2,29.4,30.38,SE,144,5.0,5.0,58,0.00,,OVC003,0.00,VWS V14.01,2013-01-10 19:42:00,
2013-01-10 14:47:00,43.1,29.3,30.38,SE,140,2.0,5.0,58,0.00,,OVC003,0.00,VWS V14.01,2013-01-10 19:47:00,
2013-01-10 14:52:00,43.3,29.5,30.38,SSE,160,2.0,0.0,58,0.00,,OVC003,0.00,VWS V14.01,2013-01-10 19:52:00,
2013-01-10 14:58:00,43.3,29.1,30.38,SE,142,4.0,4.0,57,0.00,,OVC003,0.00,VWS V14.01,2013-01-10 19:58:00,
2013-01-10 15:03:00,43.2,29.0,30.38,SSE,149,2.0,0.0,57,0.00,,OVC003,0.00,VWS V14.01,2013-01-10 20:03:00,
2013-01-10 15:08:00,43.2,29.0,30.38,SSE,164,2.0,0.0,57,0.00,,OVC003,0.00,VWS V14.01,2013-01-10 20:08:00,
2013-01-10 15:13:00,43.2,29.4,30.38,SSE,164,2.0,0.0,58,0.00,,OVC003,0.00,VWS V14.01,2013-01-10 20:13:00,
2013-01-10 15:18:00,43.0,28.8,30.36,SSE,155,3.0,3.0,57,0.00,,OVC003,0.00,VWS V14.01,2013-01-10 20:18:00,
2013-01-10 15:23:00,42.8,29.1,30.36,South,172,2.0,0.0,58,0.00,,OVC003,0.00,VWS V14.01,2013-01-10 20:23:00,
2013-01-10 15:28:00,42.7,29.0,30.36,South,173,2.0,0.0,58,0.00,,OVC003,0.00,VWS V14.01,2013-01-10 20:28:00,
2013-01-10 15:33:00,42.5,29.2,30.35,South,172,2.0,0.0,59,0.00,,OVC003,0.00,VWS V14.01,2013-01-10 20:33:00,
2013-01-10 15:38:00,42.4,28.7,30.35,South,172,2.0,0.0,58,0.00,,OVC003,0.00,VWS V14.01,2013-01-10 20:38:00,
2013-01-10 15:43:00,42.2,28.5,30.35,South,172,2.0,0.0,58,0.00,,OVC003,0.00,VWS V14.01,2013-01-10 20:43:00,
2013-01-10 15:48:00,42.1,28.4,30.35,South,173,3.0,3.0,58,0.00,,OVC003,0.00,VWS V14.01,2013-01-10 20:48:00,
2013-01-10 15:53:00,42.1,28.4,30.35,SSE,147,2.0,0.0,58,0.00,,OVC003,0.00,VWS V14.01,2013-01-10 20:53:00,
2013-01-10 15:58:00,42.1,28.4,30.35,SE,128,2.0,2.0,58,0.00,,OVC003,0.00,VWS V14.01,2013-01-10 20:58:00,
2013-01-10 16:03:00,42.1,28.4,30.35,SE,128,2.0,0.0,58,0.00,,OVC003,0.00,VWS V14.01,2013-01-10 21:03:00,
2013-01-10 16:08:00,42.0,28.3,30.35,SE,128,2.0,0.0,58,0.00,,OVC003,0.00,VWS V14.01,2013-01-10 21:08:00,
2013-01-10 16:13:00,41.9,28.6,30.35,SE,128,2.0,0.0,59,0.00,,OVC003,0.00,VWS V14.01,2013-01-10 21:13:00,
2013-01-10 16:18:00,41.7,28.9,30.34,SE,128,2.0,0.0,60,0.00,,OVC003,0.00,VWS V14.01,2013-01-10 21:18:00,
2013-01-10 16:23:00,41.4,28.6,30.34,SE,128,2.0,0.0,60,0.00,,OVC003,0.00,VWS V14.01,2013-01-10 21:23:00,
2013-01-10 16:28:00,41.1,28.3,30.34,SE,132,2.0,0.0,60,0.00,,OVC003,0.00,VWS V14.01,2013-01-10 21:28:00,
2013-01-10 16:33:00,41.0,28.6,30.35,SE,132,2.0,0.0,61,0.00,,OVC003,0.00,VWS V14.01,2013-01-10 21:33:00,
2013-01-10 16:39:00,40.9,28.5,30.35,SE,132,2.0,2.0,61,0.00,,OVC003,0.00,VWS V14.01,2013-01-10 21:39:00,
2013-01-10 16:44:00,40.8,28.4,30.35,SE,132,2.0,2.0,61,0.00,,OVC003,0.00,VWS V14.01,2013-01-10 21:44:00,
2013-01-10 16:49:00,40.6,28.6,30.34,SE,132,3.0,3.0,62,0.00,,OVC003,0.00,VWS V14.01,2013-01-10 21:49:00,
2013-01-10 16:54:00,40.4,28.4,30.34,SE,132,2.0,0.0,62,0.00,,OVC003,0.00,VWS V14.01,2013-01-10 21:54:00,
2013-01-10 16:59:00,40.2,28.2,30.34,SE,132,2.0,0.0,62,0.00,,OVC003,0.00,VWS V14.01,2013-01-10 21:59:00,
2013-01-10 17:04:00,40.0,28.4,30.34,SE,132,3.0,3.0,63,0.00,,OVC003,0.00,VWS V14.01,2013-01-10 22:04:00,
2013-01-10 17:09:00,39.9,28.3,30.34,SE,132,2.0,0.0,63,0.00,,OVC003,0.00,VWS V14.01,2013-01-10 22:09:00,
2013-01-10 17:14:00,39.7,28.1,30.34,SE,132,2.0,0.0,63,0.00,,OVC003,0.00,VWS V14.01,2013-01-10 22:14:00,
2013-01-10 17:19:00,39.5,28.4,30.33,SE,132,2.0,0.0,64,0.00,,OVC003,0.00,VWS V14.01,2013-01-10 22:19:00,
2013-01-10 17:24:00,39.3,28.2,30.33,SE,132,2.0,0.0,64,0.00,,OVC003,0.00,VWS V14.01,2013-01-10 22:24:00,
2013-01-10 17:29:00,39.1,28.0,30.33,SE,132,2.0,0.0,64,0.00,,OVC003,0.00,VWS V14.01,2013-01-10 22:29:00,
2013-01-10 17:34:00,38.8,28.1,30.33,SE,132,2.0,0.0,65,0.00,,OVC003,0.00,VWS V14.01,2013-01-10 22:34:00,
2013-01-10 17:39:00,38.7,28.0,30.33,SE,132,2.0,0.0,65,0.00,,OVC003,0.00,VWS V14.01,2013-01-10 22:39:00,
2013-01-10 17:44:00,38.4,28.0,30.33,SE,132,2.0,0.0,66,0.00,,OVC003,0.00,VWS V14.01,2013-01-10 22:44:00,
2013-01-10 17:49:00,38.3,28.0,30.32,SE,132,2.0,0.0,66,0.00,,OVC003,0.00,VWS V14.01,2013-01-10 22:49:00,
2013-01-10 17:55:00,38.1,28.1,30.32,SE,132,2.0,0.0,67,0.00,,OVC003,0.00,VWS V14.01,2013-01-10 22:55:00,
2013-01-10 18:00:00,37.9,27.9,30.32,SE,132,2.0,0.0,67,0.00,,OVC003,0.00,VWS V14.01,2013-01-10 23:00:00,
2013-01-10 18:05:00,37.9,27.9,30.32,SE,132,2.0,0.0,67,0.00,,OVC003,0.00,VWS V14.01,2013-01-10 23:05:00,
2013-01-10 18:10:00,37.9,28.3,30.32,SE,132,2.0,0.0,68,0.00,,OVC003,0.00,VWS V14.01,2013-01-10 23:10:00,
2013-01-10 18:15:00,37.8,28.2,30.32,SE,132,2.0,0.0,68,0.00,,OVC003,0.00,VWS V14.01,2013-01-10 23:15:00,
2013-01-10 18:20:00,37.7,28.1,30.32,SE,132,2.0,0.0,68,0.00,,OVC003,0.00,VWS V14.01,2013-01-10 23:20:00,
2013-01-10 18:25:00,37.6,28.0,30.32,SE,132,2.0,0.0,68,0.00,,OVC003,0.00,VWS V14.01,2013-01-10 23:25:00,
2013-01-10 18:30:00,37.6,28.4,30.32,SE,132,2.0,2.0,69,0.00,,OVC003,0.00,VWS V14.01,2013-01-10 23:30:00,
2013-01-10 18:35:00,37.5,28.3,30.31,SE,132,2.0,2.0,69,0.00,,OVC003,0.00,VWS V14.01,2013-01-10 23:35:00,
2013-01-10 18:40:00,37.5,28.3,30.31,SE,132,4.0,4.0,69,0.00,,OVC003,0.00,VWS V14.01,2013-01-10 23:40:00,
2013-01-10 18:45:00,37.5,27.9,30.31,SE,124,4.0,4.0,68,0.00,,OVC003,0.00,VWS V14.01,2013-01-10 23:45:00,
2013-01-10 18:50:00,37.7,28.1,30.30,SE,124,2.0,2.0,68,0.00,,OVC003,0.00,VWS V14.01,2013-01-10 23:50:00,
2013-01-10 18:57:00,37.7,28.1,30.30,SE,124,2.0,2.0,68,0.00,,OVC003,0.00,VWS V14.01,2013-01-10 23:57:00,
2013-01-10 19:02:00,37.6,28.0,30.28,SE,124,2.0,2.0,68,0.00,,OVC003,0.00,VWS V14.01,2013-01-11 00:02:00,
2013-01-10 19:07:00,37.4,27.8,30.28,SE,124,3.0,3.0,68,0.00,,OVC003,0.00,VWS V14.01,2013-01-11 00:07:00,
2013-01-10 19:12:00,37.4,27.8,30.28,SE,124,2.0,2.0,68,0.00,,OVC003,0.00,VWS V14.01,2013-01-11 00:12:00,
2013-01-10 19:17:00,37.3,28.1,30.28,SE,124,2.0,2.0,69,0.00,,OVC003,0.00,VWS V14.01,2013-01-11 00:17:00,
2013-01-10 19:22:00,37.2,28.0,30.28,East,100,4.0,4.0,69,0.00,,OVC003,0.00,VWS V14.01,2013-01-11 00:22:00,
2013-01-10 19:27:00,37.2,28.0,30.28,East,99,2.0,2.0,69,0.00,,OVC003,0.00,VWS V14.01,2013-01-11 00:27:00,
2013-01-10 19:32:00,37.2,28.0,30.28,East,100,3.0,3.0,69,0.00,,OVC003,0.00,VWS V14.01,2013-01-11 00:32:00,
2013-01-10 19:37:00,37.1,28.2,30.28,East,100,2.0,2.0,70,0.00,,OVC003,0.00,VWS V14.01,2013-01-11 00:37:00,
2013-01-10 19:42:00,37.0,28.1,30.28,East,100,2.0,0.0,70,0.00,,OVC003,0.00,VWS V14.01,2013-01-11 00:42:00,
2013-01-10 19:47:00,36.8,28.0,30.28,East,100,2.0,2.0,70,0.00,,OVC003,0.00,VWS V14.01,2013-01-11 00:47:00,
2013-01-10 19:52:00,36.7,28.2,30.28,East,100,2.0,2.0,71,0.00,,OVC003,0.00,VWS V14.01,2013-01-11 00:52:00,
2013-01-10 19:57:00,36.7,28.2,30.28,East,100,3.0,3.0,71,0.00,,OVC003,0.00,VWS V14.01,2013-01-11 00:57:00,
2013-01-10 20:02:00,36.6,28.1,30.26,SE,124,2.0,4.0,71,0.00,,OVC003,0.00,VWS V14.01,2013-01-11 01:02:00,
2013-01-10 20:07:00,36.6,28.1,30.26,SE,124,2.0,2.0,71,0.00,,OVC003,0.00,VWS V14.01,2013-01-11 01:07:00,
2013-01-10 20:12:00,36.4,28.2,30.26,SE,124,2.0,0.0,72,0.00,,OVC003,0.00,VWS V14.01,2013-01-11 01:12:00,
2013-01-10 20:18:00,36.2,28.4,30.26,SE,124,2.0,0.0,73,0.00,,OVC003,0.00,VWS V14.01,2013-01-11 01:18:00,
2013-01-10 20:24:00,36.0,28.2,30.26,SE,124,3.0,3.0,73,0.00,,OVC003,0.00,VWS V14.01,2013-01-11 01:24:00,
2013-01-10 20:29:00,35.9,28.4,30.26,SE,124,2.0,0.0,74,0.00,,OVC003,0.00,VWS V14.01,2013-01-11 01:29:00,
2013-01-10 20:34:00,35.8,28.3,30.25,SE,124,2.0,0.0,74,0.00,,OVC003,0.00,VWS V14.01,2013-01-11 01:34:00,
2013-01-10 20:39:00,35.8,28.3,30.25,SE,135,3.0,3.0,74,0.00,,OVC003,0.00,VWS V14.01,2013-01-11 01:39:00,
2013-01-10 20:44:00,35.8,28.3,30.25,SE,135,2.0,2.0,74,0.00,,OVC003,0.00,VWS V14.01,2013-01-11 01:44:00,
2013-01-10 20:49:00,35.8,28.3,30.25,SE,135,2.0,0.0,74,0.00,,OVC003,0.00,VWS V14.01,2013-01-11 01:49:00,
2013-01-10 20:54:00,35.7,28.6,30.25,SE,135,2.0,0.0,75,0.00,,OVC003,0.00,VWS V14.01,2013-01-11 01:54:00,
2013-01-10 20:59:00,35.6,28.5,30.25,SE,135,2.0,2.0,75,0.00,,OVC003,0.00,VWS V14.01,2013-01-11 01:59:00,
2013-01-10 21:04:00,35.6,28.5,30.24,SE,135,2.0,2.0,75,0.00,,OVC003,0.00,VWS V14.01,2013-01-11 02:04:00,
2013-01-10 21:09:00,35.5,28.4,30.24,SE,135,4.0,4.0,75,0.00,,OVC003,0.00,VWS V14.01,2013-01-11 02:09:00,
2013-01-10 21:14:00,35.5,28.4,30.24,SE,135,2.0,2.0,75,0.00,,OVC003,0.00,VWS V14.01,2013-01-11 02:14:00,
2013-01-10 21:19:00,35.4,28.6,30.23,SSE,147,2.0,2.0,76,0.00,,OVC003,0.00,VWS V14.01,2013-01-11 02:19:00,
2013-01-10 21:24:00,35.5,28.7,30.23,SSE,147,2.0,0.0,76,0.00,,OVC003,0.00,VWS V14.01,2013-01-11 02:24:00,
2013-01-10 21:29:00,35.5,28.4,30.23,SSE,147,2.0,2.0,75,0.00,,OVC003,0.00,VWS V14.01,2013-01-11 02:29:00,
2013-01-10 21:34:00,35.6,28.5,30.23,SSE,147,2.0,2.0,75,0.00,,OVC003,0.00,VWS V14.01,2013-01-11 02:34:00,
2013-01-10 21:39:00,35.6,28.5,30.23,SSE,147,2.0,0.0,75,0.00,,OVC003,0.00,VWS V14.01,2013-01-11 02:39:00,
2013-01-10 21:45:00,35.7,28.6,30.23,SSE,147,2.0,2.0,75,0.00,,OVC003,0.00,VWS V14.01,2013-01-11 02:45:00,
2013-01-10 21:51:00,35.7,28.6,30.22,SSE,147,3.0,3.0,75,0.00,,OVC003,0.00,VWS V14.01,2013-01-11 02:51:00,
2013-01-10 21:56:00,35.8,28.7,30.22,SSE,147,2.0,2.0,75,0.00,,OVC003,0.00,VWS V14.01,2013-01-11 02:56:00,
2013-01-10 22:01:00,35.8,28.7,30.22,SSE,147,2.0,2.0,75,0.00,,OVC003,0.00,VWS V14.01,2013-01-11 03:01:00,
2013-01-10 22:06:00,35.8,28.7,30.21,SSE,147,2.0,2.0,75,0.00,,OVC003,0.00,VWS V14.01,2013-01-11 03:06:00,
2013-01-10 22:11:00,35.8,28.7,30.21,SSE,147,3.0,3.0,75,0.00,,OVC003,0.00,VWS V14.01,2013-01-11 03:11:00,
2013-01-10 22:16:00,35.8,29.0,30.21,SSE,147,2.0,2.0,76,0.00,,OVC003,0.00,VWS V14.01,2013-01-11 03:16:00,
2013-01-10 22:21:00,35.7,29.2,30.18,SSE,147,2.0,2.0,77,0.00,,OVC003,0.00,VWS V14.01,2013-01-11 03:21:00,
2013-01-10 22:26:00,35.6,29.1,30.18,SSE,147,2.0,3.0,77,0.00,,OVC003,0.00,VWS V14.01,2013-01-11 03:26:00,
2013-01-10 22:31:00,35.5,29.6,30.18,SSE,147,2.0,2.0,79,0.00,,OVC003,0.00,VWS V14.01,2013-01-11 03:31:00,
2013-01-10 22:36:00,35.4,29.5,30.17,SE,146,3.0,3.0,79,0.00,,OVC003,0.00,VWS V14.01,2013-01-11 03:36:00,
2013-01-10 22:42:00,35.3,29.8,30.17,SE,146,2.0,2.0,80,0.01,,OVC003,0.01,VWS V14.01,2013-01-11 03:42:00,
2013-01-10 22:47:00,35.1,29.9,30.16,SE,146,2.0,2.0,81,0.01,,OVC003,0.01,VWS V14.01,2013-01-11 03:47:00,
2013-01-10 22:52:00,35.0,30.1,30.16,SE,146,2.0,2.0,82,0.01,,OVC003,0.01,VWS V14.01,2013-01-11 03:52:00,
2013-01-10 22:58:00,34.8,30.2,30.16,SE,145,2.0,0.0,83,0.01,,OVC003,0.01,VWS V14.01,2013-01-11 03:58:00,
2013-01-10 23:03:00,34.7,30.4,30.16,SE,146,2.0,0.0,84,0.01,,OVC003,0.01,VWS V14.01,2013-01-11 04:03:00,
2013-01-10 23:08:00,34.6,30.3,30.16,SE,146,2.0,0.0,84,0.02,,OVC003,0.02,VWS V14.01,2013-01-11 04:08:00,
2013-01-10 23:13:00,34.4,30.4,30.16,SE,146,2.0,0.0,85,0.02,,OVC003,0.02,VWS V14.01,2013-01-11 04:13:00,
2013-01-10 23:18:00,34.4,30.4,30.13,SE,146,2.0,2.0,85,0.03,,OVC003,0.03,VWS V14.01,2013-01-11 04:18:00,
2013-01-10 23:23:00,34.4,30.6,30.13,SE,146,2.0,0.0,86,0.04,,OVC003,0.04,VWS V14.01,2013-01-11 04:23:00,
2013-01-10 23:28:00,34.2,30.7,30.13,SE,146,2.0,0.0,87,0.04,,OVC003,0.04,VWS V14.01,2013-01-11 04:28:00,
2013-01-10 23:33:00,34.1,30.6,30.11,SE,145,2.0,0.0,87,0.05,,OVC003,0.05,VWS V14.01,2013-01-11 04:33:00,
2013-01-10 23:38:00,34.1,30.6,30.11,SE,146,2.0,0.0,87,0.05,,OVC003,0.05,VWS V14.01,2013-01-11 04:38:00,
2013-01-10 23:43:00,34.1,30.9,30.11,SE,145,3.0,3.0,88,0.05,,OVC003,0.06,VWS V14.01,2013-01-11 04:43:00,
2013-01-10 23:48:00,34.1,30.9,30.11,SE,145,2.0,0.0,88,0.05,,OVC003,0.06,VWS V14.01,2013-01-11 04:48:00,
2013-01-10 23:53:00,34.1,30.9,30.11,SE,145,3.0,3.0,88,0.06,,OVC003,0.07,VWS V14.01,2013-01-11 04:53:00,
2013-01-10 23:58:00,34.1,30.9,30.11,ESE,102,2.0,2.0,88,0.08,,OVC003,0.09,VWS V14.01,2013-01-11 04:58:00,